When you browse on this site, cookies collect data to enhance your experience and personalize the content and advertising you see.
Visit our Privacy Policy to learn more. By continuing to use the site, you agree to this use of cookies and data.
  • In United Kingdom
  • List of Countries
  • For 7 days
  • Water Temperature
  • Satellite Maps
  • Weather Map
  • Weather Widgets
  • user-avatar
    Login

    Hourly Weather Kapan

    Today, 24 March, Sunday

    Time Temperature Precipitation Wind Pressure Humidity
    00:00 +7°C° 0 mm 1 mps 680 mmHg 61%
    01:00 +7°C° 0 mm 1 mps 679 mmHg 62%
    02:00 +7°C° 0 mm 1 mps 679 mmHg 62%
    03:00 +8°C° 0 mm 1 mps 679 mmHg 58%
    04:00 +7°C° 0 mm 1 mps 679 mmHg 62%
    05:00 +7°C° 0 mm 1 mps 679 mmHg 65%
    06:00 +6°C° 0 mm 1 mps 679 mmHg 69%
    07:00 +8°C° 0 mm 1 mps 679 mmHg 66%
    08:00 +8°C° 0 mm 2 mps 678 mmHg 63%
    09:00 +9°C° 0 mm 2 mps 678 mmHg 61%
    10:00 +10°C° 0 mm 3 mps 678 mmHg 60%
    11:00 +11°C° 0 mm 3 mps 678 mmHg 59%
    12:00 +12°C° 0 mm 3 mps 677 mmHg 58%
    13:00 +11°C° 0.1 mm 4 mps 677 mmHg 61%
    14:00 +11°C° 0.1 mm 4 mps 676 mmHg 63%
    15:00 +11°C° 0.1 mm 4 mps 676 mmHg 66%
    16:00 +10°C° 1.1 mm 4 mps 676 mmHg 73%
    17:00 +9°C° 1.1 mm 3 mps 676 mmHg 80%
    18:00 +8°C° 1.1 mm 3 mps 677 mmHg 87%
    19:00 +7°C° 1.2 mm 3 mps 677 mmHg 89%
    20:00 +7°C° 1.2 mm 3 mps 677 mmHg 90%
    21:00 +5°C° 1.2 mm 3 mps 677 mmHg 92%
    22:00 +5°C° 0.5 mm 3 mps 677 mmHg 93%
    23:00 +5°C° 0.5 mm 3 mps 678 mmHg 93%

    Tomorrow, 25 March, Monday

    Time Temperature Precipitation Wind Pressure Humidity
    00:00 +5°C° 0.5 mm 3 mps 678 mmHg 93%
    01:00 +4°C° 0.4 mm 3 mps 678 mmHg 94%
    02:00 +4°C° 0.4 mm 3 mps 678 mmHg 94%
    03:00 +4°C° 0.4 mm 3 mps 678 mmHg 94%
    04:00 +3°C° 0.3 mm 3 mps 677 mmHg 93%
    05:00 +4°C° 0.3 mm 2 mps 677 mmHg 92%
    06:00 +4°C° 0.3 mm 2 mps 677 mmHg 92%
    07:00 +4°C° 1.1 mm 2 mps 677 mmHg 91%
    08:00 +4°C° 1.1 mm 2 mps 678 mmHg 90%
    09:00 +3°C° 1.1 mm 3 mps 678 mmHg 89%
    10:00 +3°C° 0.7 mm 3 mps 678 mmHg 89%
    11:00 +3°C° 0.7 mm 3 mps 677 mmHg 89%
    12:00 +3°C° 0.7 mm 3 mps 677 mmHg 88%
    13:00 +3°C° 0.8 mm 3 mps 677 mmHg 88%
    14:00 +3°C° 0.8 mm 3 mps 677 mmHg 88%
    15:00 +3°C° 0.8 mm 3 mps 677 mmHg 88%
    16:00 +2°C° 0.6 mm 3 mps 678 mmHg 89%
    17:00 +2°C° 0.6 mm 3 mps 678 mmHg 90%
    18:00 +2°C° 0.6 mm 2 mps 678 mmHg 91%
    19:00 +2°C° 0.6 mm 2 mps 679 mmHg 91%
    20:00 +3°C° 0.6 mm 1 mps 679 mmHg 90%
    21:00 +3°C° 0.6 mm 1 mps 680 mmHg 90%
    22:00 +3°C° 0.3 mm 1 mps 680 mmHg 90%
    23:00 +3°C° 0.3 mm 1 mps 680 mmHg 89%

    Day after tomorrow, 26 March, Tuesday

    Time Temperature Precipitation Wind Pressure Humidity
    00:00 +3°C° 0.3 mm 1 mps 680 mmHg 89%
    01:00 +3°C° 0.1 mm 1 mps 680 mmHg 88%
    02:00 +3°C° 0.1 mm 1 mps 680 mmHg 87%
    03:00 +3°C° 0.1 mm 1 mps 681 mmHg 87%
    04:00 +3°C° 0.1 mm 1 mps 681 mmHg 87%
    05:00 +3°C° 0.1 mm 1 mps 681 mmHg 87%
    06:00 +3°C° 0.1 mm 1 mps 681 mmHg 87%
    07:00 +4°C° 0.2 mm 1 mps 682 mmHg 86%
    08:00 +5°C° 0.2 mm 1 mps 682 mmHg 85%
    09:00 +5°C° 0.2 mm 2 mps 683 mmHg 84%
    10:00 +6°C° 0.3 mm 2 mps 683 mmHg 82%
    11:00 +6°C° 0.3 mm 2 mps 682 mmHg 80%
    12:00 +7°C° 0.3 mm 2 mps 682 mmHg 78%
    13:00 +7°C° 0.1 mm 2 mps 682 mmHg 79%
    14:00 +7°C° 0.1 mm 3 mps 681 mmHg 79%
    15:00 +8°C° 0.1 mm 3 mps 681 mmHg 80%
    16:00 +7°C° 0.1 mm 2 mps 681 mmHg 82%
    17:00 +6°C° 0.1 mm 2 mps 681 mmHg 84%
    18:00 +7°C° 0.1 mm 1 mps 681 mmHg 86%
    19:00 +6°C° 0 mm 1 mps 681 mmHg 87%
    20:00 +6°C° 0 mm 1 mps 681 mmHg 88%
    21:00 +5°C° 0 mm 0 mps 681 mmHg 89%
    22:00 +5°C° 0 mm 0 mps 681 mmHg 89%
    23:00 +4°C° 0 mm 0 mps 681 mmHg 89%

    27 March, Wednesday

    Time Temperature Precipitation Wind Pressure Humidity
    00:00 +4°C° 0 mm 0 mps 680 mmHg 89%
    01:00 +4°C° 0 mm 0 mps 680 mmHg 88%
    02:00 +5°C° 0 mm 1 mps 680 mmHg 86%
    03:00 +5°C° 0 mm 1 mps 680 mmHg 85%
    04:00 +5°C° 0 mm 1 mps 680 mmHg 83%
    05:00 +5°C° 0 mm 1 mps 681 mmHg 82%
    06:00 +5°C° 0 mm 1 mps 681 mmHg 80%
    07:00 +7°C° 0 mm 1 mps 681 mmHg 77%
    08:00 +8°C° 0 mm 2 mps 681 mmHg 73%
    09:00 +9°C° 0 mm 2 mps 682 mmHg 69%
    10:00 +10°C° 0 mm 2 mps 682 mmHg 66%
    11:00 +13°C° 0 mm 2 mps 681 mmHg 62%
    12:00 +14°C° 0 mm 2 mps 681 mmHg 59%
    13:00 +14°C° 0 mm 2 mps 681 mmHg 58%
    14:00 +14°C° 0 mm 2 mps 681 mmHg 56%
    15:00 +14°C° 0 mm 2 mps 681 mmHg 55%
    16:00 +13°C° 0 mm 2 mps 681 mmHg 57%
    17:00 +12°C° 0 mm 2 mps 681 mmHg 60%
    18:00 +10°C° 0 mm 2 mps 681 mmHg 63%
    19:00 +9°C° 0 mm 2 mps 681 mmHg 64%
    20:00 +8°C° 0 mm 2 mps 682 mmHg 66%
    21:00 +7°C° 0 mm 2 mps 682 mmHg 68%
    22:00 +7°C° 0 mm 2 mps 682 mmHg 66%
    23:00 +7°C° 0 mm 2 mps 682 mmHg 65%

    28 March, Thursday

    Time Temperature Precipitation Wind Pressure Humidity
    00:00 +6°C° 0 mm 2 mps 682 mmHg 63%
    01:00 +6°C° 0 mm 2 mps 682 mmHg 62%
    02:00 +6°C° 0 mm 2 mps 682 mmHg 61%
    03:00 +6°C° 0 mm 2 mps 682 mmHg 61%
    04:00 +7°C° 0 mm 1 mps 682 mmHg 62%
    05:00 +7°C° 0 mm 1 mps 683 mmHg 64%
    06:00 +6°C° 0 mm 0 mps 683 mmHg 66%
    07:00 +7°C° 0.1 mm 1 mps 683 mmHg 67%
    08:00 +8°C° 0.1 mm 1 mps 684 mmHg 68%
    09:00 +8°C° 0.1 mm 2 mps 684 mmHg 68%
    10:00 +9°C° 0.4 mm 2 mps 684 mmHg 68%
    11:00 +9°C° 0.4 mm 2 mps 684 mmHg 68%
    12:00 +9°C° 0.4 mm 2 mps 684 mmHg 68%
    13:00 +9°C° 0.7 mm 2 mps 683 mmHg 71%
    14:00 +8°C° 0.7 mm 2 mps 683 mmHg 75%
    15:00 +8°C° 0.7 mm 2 mps 683 mmHg 79%
    16:00 +8°C° 0.5 mm 2 mps 683 mmHg 83%
    17:00 +7°C° 0.5 mm 2 mps 683 mmHg 87%
    18:00 +7°C° 0.5 mm 2 mps 683 mmHg 91%
    19:00 +6°C° 0.3 mm 2 mps 684 mmHg 92%
    20:00 +6°C° 0.3 mm 2 mps 684 mmHg 93%
    21:00 +5°C° 0.3 mm 2 mps 684 mmHg 93%
    22:00 +5°C° 0.4 mm 2 mps 684 mmHg 93%
    23:00 +4°C° 0.4 mm 2 mps 684 mmHg 93%

    29 March, Friday

    Time Temperature Precipitation Wind Pressure Humidity
    00:00 +4°C° 0.4 mm 2 mps 684 mmHg 93%
    01:00 +3°C° 0.4 mm 2 mps 684 mmHg 93%
    02:00 +3°C° 0.4 mm 2 mps 684 mmHg 93%
    03:00 +2°C° 0.4 mm 2 mps 684 mmHg 92%
    04:00 +2°C° 1 mm 2 mps 685 mmHg 92%
    05:00 +3°C° 1 mm 1 mps 685 mmHg 91%
    06:00 +3°C° 1 mm 1 mps 685 mmHg 91%
    07:00 +3°C° 0.7 mm 1 mps 686 mmHg 89%
    08:00 +2°C° 0.7 mm 2 mps 686 mmHg 87%
    09:00 +3°C° 0.7 mm 2 mps 686 mmHg 85%
    10:00 +4°C° 0.2 mm 2 mps 686 mmHg 83%
    11:00 +5°C° 0.2 mm 2 mps 686 mmHg 80%
    12:00 +5°C° 0.2 mm 3 mps 686 mmHg 78%
    13:00 +5°C° 0.1 mm 3 mps 685 mmHg 77%
    14:00 +7°C° 0.1 mm 3 mps 685 mmHg 76%
    15:00 +7°C° 0.1 mm 3 mps 684 mmHg 75%
    16:00 +5°C° 0.1 mm 3 mps 684 mmHg 79%
    17:00 +5°C° 0.1 mm 2 mps 684 mmHg 82%
    18:00 +4°C° 0.1 mm 2 mps 684 mmHg 86%
    19:00 +4°C° 0.1 mm 2 mps 684 mmHg 87%
    20:00 +4°C° 0.1 mm 1 mps 684 mmHg 88%
    21:00 +4°C° 0.1 mm 1 mps 684 mmHg 88%
    22:00 +4°C° 0.1 mm 1 mps 684 mmHg 87%
    23:00 +4°C° 0.1 mm 1 mps 683 mmHg 86%
    Show more